Location: Tierra del Sol
(32.6128°N, 116.3319°W)
Time: 15:47:24
(UTC-07:00)

Amateur Radio Satellites - All Passes

Search period start: 25 July 2017 15:17
Search period end: 26 July 2017 15:17
Location: Tierra del Sol, 32.6128°N, 116.3319°W

Satellite Date Start Highest point End Downlink Frequencies (MHz)
Time Altitude Azimuth
AO-7 25 Jul 15:18:36 15:26:55 77° 71° (ENE) 15:35:18 .
O/OREOS (USA 219) 25 Jul 15:20:21 15:24:48 65° 290° (WNW) 15:29:16 437.305
RS-15 25 Jul 15:21:34 15:33:27 67° 112° (ESE) 15:45:37 29.354- 29.394
SO-50 25 Jul 15:26:20 15:30:50 59° 60° (ENE) 15:35:21 436.795
PCSat 25 Jul 15:30:03 15:34:57 35° 251° (WSW) 15:39:49 145.827
MOZHAYETS 4 25 Jul 15:37:01 15:41:17 38° 99° (E) 15:45:31
CUBESAT XI-V 25 Jul 16:13:59 16:17:05 17° 94° (E) 16:20:10 437.345
BEESAT 25 Jul 16:18:07 16:22:44 52° 286° (WNW) 16:27:19 436.000
ITUPSAT 1 25 Jul 16:31:56 16:36:18 38° 288° (WNW) 16:40:40 437.325
ITAMSAT 1 25 Jul 16:32:53 16:37:00 23° 264° (W) 16:41:08 435.822/435.867
DOVE 4 25 Jul 16:53:59 16:58:10 30° 70° (ENE) 17:02:34 437.250
YUBILEINY 25 Jul 17:03:43 17:06:03 11° 77° (ENE) 17:08:23 435.215
SO-50 25 Jul 17:09:35 17:10:45 11° 253° (WSW) 17:11:56 436.795
XW-2D 25 Jul 17:12:46 17:14:31 13° 69° (ENE) 17:16:16 145.860 - 145.880
AO-7 25 Jul 17:14:56 17:20:15 18° 265° (W) 17:25:38 .
MOZHAYETS 4 25 Jul 17:15:18 17:18:04 16° 292° (WNW) 17:20:51
XW-2B 25 Jul 17:22:08 17:24:32 17° 71° (ENE) 17:26:57 145.730 - 145.750
RS-15 25 Jul 17:35:53 17:46:43 36° 313° (NW) 17:57:46 29.354- 29.394
XW-2C 25 Jul 17:38:36 17:41:49 27° 73° (ENE) 17:45:02 145.795 - 145.815
NUDT-PHONESAT 25 Jul 17:44:06 17:47:02 23° 72° (ENE) 17:49:59 437.300
HO-68 25 Jul 17:46:51 17:51:00 17° 60° (ENE) 17:55:09 435.675
CUBESAT XI-V 25 Jul 17:50:13 17:54:29 36° 287° (WNW) 17:58:46 437.345
KKS-1 25 Jul 17:50:20 17:54:47 70° 285° (WNW) 17:59:12 437.445
KAITUO 1B 25 Jul 17:58:54 18:02:19 38° 75° (ENE) 18:05:45 145.475/437.950
NO-84 25 Jul 18:01:09 18:04:37 28° 43° (NE) 18:08:16 435.350 FM
LilacSat-2 25 Jul 18:02:08 18:05:52 65° 77° (ENE) 18:09:37 437.200
CUTE 1.7 + AOD 2 25 Jul 18:14:59 18:16:32 12° 67° (ENE) 18:18:05 437.475
XW-2F 25 Jul 18:15:20 18:19:04 89° 87° (E) 18:22:49 145.980 - 146.000
STARS 25 Jul 18:18:16 18:22:41 85° 285° (WNW) 18:27:03 437.465
CUTE-I 25 Jul 18:23:21 18:28:43 89° 76° (ENE) 18:34:07 437.470
DOVE 4 25 Jul 18:31:57 18:35:47 24° 266° (W) 18:39:48 437.250
XW-2D 25 Jul 18:45:02 18:48:22 31° 262° (W) 18:51:44 145.860 - 145.880
XW-2A 25 Jul 18:52:06 18:54:15 16° 71° (ENE) 18:56:24 145.665 - 145.685
YUBILEINY 25 Jul 18:52:31 19:01:20 80° 94° (E) 19:10:11 435.215
Tancredo 1 25 Jul 18:54:43 18:57:29 41° 132° (SE) 19:00:16 437.200
XW-2B 25 Jul 18:55:26 18:58:30 24° 263° (W) 19:01:34 145.730 - 145.750
UWE-3 25 Jul 18:57:45 18:59:29 12° 67° (ENE) 19:01:11 435.000/436.395/437.385
AAUSAT CUBESAT 2 25 Jul 19:07:02 19:08:54 13° 68° (ENE) 19:10:46 437.432
XW-2C 25 Jul 19:14:01 19:16:00 14° 266° (W) 19:17:59 145.795 - 145.815
STRAND 1 25 Jul 19:17:57 19:21:53 22° 96° (E) 19:25:47 437.568
NUDT-PHONESAT 25 Jul 19:18:32 19:20:51 16° 265° (W) 19:23:11 437.300
nSIGHT-1 25 Jul 19:23:22 19:26:10 27° 130° (SE) 19:28:59 .
HO-68 25 Jul 19:30:40 19:37:51 80° 255° (WSW) 19:45:04 435.675
CUBEBUG 2 25 Jul 19:34:17 19:38:56 59° 75° (ENE) 19:43:29 437.445
Oscar 11 25 Jul 19:36:01 19:36:32 10° 66° (ENE) 19:37:05 .
NO-84 25 Jul 19:38:34 19:42:04 28° 235° (SW) 19:45:42 435.350 FM
AO-73 25 Jul 19:47:53 19:51:13 21° 71° (ENE) 19:54:30 145.935
CUTE 1.7 + AOD 2 25 Jul 19:47:55 19:51:55 44° 261° (W) 19:55:56 437.475
SEEDS 25 Jul 19:58:36 20:02:40 54° 260° (W) 20:06:45 437.485
RS-15 25 Jul 20:00:33 20:04:45 12° 345° (NNW) 20:08:56 29.354- 29.394
ISS 25 Jul 20:17:44 20:20:56 60° 318° (NW) 20:24:09 437.550
XW-2A 25 Jul 20:24:20 20:26:48 19° 264° (W) 20:29:17 145.665 - 145.685
UWE-3 25 Jul 20:30:57 20:35:27 53° 260° (W) 20:39:51 435.000/436.395/437.385
Tancredo 1 25 Jul 20:31:29 20:33:01 13° 327° (NNW) 20:34:35 437.200
AAUSAT CUBESAT 2 25 Jul 20:40:08 20:43:57 38° 262° (W) 20:47:48 437.432
ZACube-1 25 Jul 20:42:57 20:47:25 73° 258° (WSW) 20:51:49 437.345
YUBILEINY 25 Jul 20:53:31 20:59:00 18° 291° (WNW) 21:04:31 435.215
FO-29 25 Jul 20:53:45 20:56:44 13° 88° (E) 20:59:34 435.910
STRAND 1 25 Jul 20:56:30 21:01:03 34° 289° (WNW) 21:05:34 437.568
AO-85 25 Jul 20:58:59 21:02:20 22° 55° (NE) 21:05:50 145.980
nSIGHT-1 25 Jul 21:00:01 21:02:33 21° 324° (NW) 21:05:06 .
Oscar 11 25 Jul 21:07:56 21:12:09 54° 260° (W) 21:16:22 .
CUBEBUG 2 25 Jul 21:14:47 21:15:45 11° 268° (W) 21:16:44 437.445
BEESAT 3 25 Jul 21:18:43 21:22:14 29° 57° (ENE) 21:25:42 437.485
AO-73 25 Jul 21:23:30 21:27:15 27° 263° (W) 21:30:58 145.935
DELFI C3 25 Jul 21:34:56 21:38:49 67° 77° (ENE) 21:42:45 145.870
EO-88 25 Jul 21:50:00 21:53:35 62° 77° (ENE) 21:57:11 145.990 - 145.960
JUGNU 25 Jul 21:52:59 21:56:08 15° 165° (SSE) 21:59:17 437.505
UNISAT 6 25 Jul 21:53:54 21:57:10 21° 96° (E) 22:00:23 437.425
BEESAT 2 25 Jul 22:00:23 22:03:56 28° 56° (NE) 22:07:25 435.950
RS-15 25 Jul 22:18:56 22:25:24 15° 25° (NNE) 22:31:44 29.354- 29.394
ESTCUBE 1 25 Jul 22:24:05 22:26:06 13° 67° (ENE) 22:28:08 437.505/2401.250
M-CUBED/EXP-1 PRIME 25 Jul 22:28:03 22:31:12 18° 99° (E) 22:34:20 437.505
FO-29 25 Jul 22:35:41 22:42:36 75° 286° (WNW) 22:48:39 435.910
TIGRISAT 25 Jul 22:37:04 22:41:21 67° 101° (E) 22:45:33 435.000
AO-85 25 Jul 22:38:50 22:42:41 31° 247° (WSW) 22:46:47 145.980
BEESAT 3 25 Jul 22:56:59 22:59:31 17° 251° (WSW) 23:02:02 437.485
PRISM 25 Jul 23:10:23 23:14:26 50° 286° (WNW) 23:18:27 437.425
LO-87 25 Jul 23:24:42 23:28:16 60° 259° (W) 23:31:52 145.935 - 145.965
UNISAT 6 25 Jul 23:30:18 23:33:47 24° 289° (WNW) 23:37:13 437.425
BEESAT 2 25 Jul 23:38:38 23:41:25 18° 251° (WSW) 23:44:12 435.950
JUGNU 25 Jul 23:39:58 23:44:31 22° 175° (S) 23:49:04 437.505
DUCHIFAT 1 25 Jul 23:40:02 23:41:38 12° 93° (E) 23:43:14 145.980
POLYITAN 1 25 Jul 23:42:52 23:45:40 17° 95° (E) 23:48:28 437.675
SPROUT 25 Jul 23:47:49 23:51:26 27° 72° (ENE) 23:55:04 437.525
QB50P2 25 Jul 23:55:17 23:58:54 28° 97° (E) 00:02:29 145.880/145.840
ESTCUBE 1 25 Jul 23:58:10 00:02:27 46° 260° (W) 00:06:46 437.505/2401.250
M-CUBED/EXP-1 PRIME 26 Jul 00:01:19 00:05:38 38° 291° (WNW) 00:09:55 437.505
AIST 2D 26 Jul 00:02:04 00:05:34 88° 282° (WNW) 00:09:04 435.315
NANOSAT C BR1 26 Jul 00:06:18 00:10:00 30° 98° (E) 00:13:41 145.865
EO-79 26 Jul 00:06:47 00:10:39 35° 99° (E) 00:14:27 145.935-145.965
50 SAT 26 Jul 00:20:04 00:22:21 17° 71° (ENE) 00:24:39 437.505
RS-15 26 Jul 00:30:11 00:41:50 51° 54° (NE) 00:52:50 29.354- 29.394
VELOX 1 26 Jul 00:39:20 00:43:45 82° 258° (WSW) 00:48:11 145.980
DX 1 26 Jul 00:42:21 00:46:06 29° 71° (ENE) 00:49:51 434.975-435.025
SRMSAT 26 Jul 00:43:59 00:47:13 15° 166° (SSE) 00:50:25 437.500
DUCHIFAT 1 26 Jul 01:13:31 01:17:27 40° 286° (WNW) 01:21:19 145.980
Oscar 19 26 Jul 01:17:04 01:20:48 20° 95° (E) 01:24:31 437.125/150
POLYITAN 1 26 Jul 01:17:49 01:21:25 28° 288° (WNW) 01:25:01 437.675
UKube-1 26 Jul 01:22:22 01:26:34 56° 74° (ENE) 01:30:47 .
SPROUT 26 Jul 01:24:09 01:27:16 20° 265° (W) 01:30:24 437.525
JUGNU 26 Jul 01:28:24 01:32:57 23° 185° (S) 01:37:30 437.505
QB50P2 26 Jul 01:31:32 01:34:27 18° 291° (WNW) 01:37:20 145.880/145.840
O/OREOS (USA 219) 26 Jul 01:34:45 01:39:15 73° 252° (WSW) 01:43:44 437.305
BUGSAT 1 26 Jul 01:38:04 01:42:09 84° 283° (WNW) 01:46:10 437.445
NANOSAT C BR1 26 Jul 01:42:45 01:45:25 17° 291° (WNW) 01:48:06 145.865
EO-79 26 Jul 01:43:40 01:46:03 15° 292° (WNW) 01:48:24 145.935-145.965
Gurwin Techsat 1B 26 Jul 01:50:38 01:55:08 28° 97° (E) 01:59:36 435.225
50 SAT 26 Jul 01:52:33 01:54:55 18° 264° (W) 01:57:18 437.505
ITUPSAT 1 26 Jul 01:58:53 02:00:59 13° 66° (ENE) 02:03:07 437.325
DX 1 26 Jul 02:19:07 02:22:13 19° 264° (W) 02:25:21 434.975-435.025
SRMSAT 26 Jul 02:31:14 02:35:45 22° 175° (S) 02:40:15 437.500
MOZHAYETS 4 26 Jul 02:34:55 02:38:26 22° 70° (ENE) 02:41:58
RS-15 26 Jul 02:43:12 02:53:53 42° 254° (WSW) 03:04:07 29.354- 29.394
ISS 26 Jul 02:49:38 02:51:58 18° 35° (NE) 02:54:18 437.550
Oscar 19 26 Jul 02:55:24 03:00:10 38° 288° (WNW) 03:04:56 437.125/150
Tancredo 1 26 Jul 02:56:41 02:59:37 64° 44° (NE) 03:02:32 437.200
ITAMSAT 1 26 Jul 03:11:16 03:14:34 17° 94° (E) 03:17:50 435.822/435.867
CUBESAT XI-V 26 Jul 03:15:38 03:16:06 10° 65° (ENE) 03:16:34 437.345
JUGNU 26 Jul 03:18:06 03:21:20 15° 195° (SSW) 03:24:35 437.505
BEESAT 26 Jul 03:19:30 03:24:16 78° 257° (WSW) 03:29:03 436.000
AO-7 26 Jul 03:26:05 03:33:26 33° 99° (E) 03:40:41 .
nSIGHT-1 26 Jul 03:30:13 03:33:20 46° 41° (NE) 03:36:27 .
Gurwin Techsat 1B 26 Jul 03:30:25 03:34:57 29° 290° (WNW) 03:39:28 435.225
ITUPSAT 1 26 Jul 03:33:37 03:38:17 55° 259° (W) 03:43:00 437.325
MOZHAYETS 4 26 Jul 04:11:30 04:15:24 27° 263° (W) 04:19:18
SRMSAT 26 Jul 04:19:51 04:24:19 22° 185° (S) 04:28:47 437.500
PCSat 26 Jul 04:23:20 04:28:36 57° 111° (ESE) 04:33:55 145.827
ISS 26 Jul 04:25:30 04:28:31 34° 229° (SW) 04:31:30 437.550
KKS-1 26 Jul 04:43:26 04:47:50 60° 75° (ENE) 04:52:15 437.445
CUBESAT XI-V 26 Jul 04:48:20 04:52:52 63° 259° (W) 04:57:26 437.345
ITAMSAT 1 26 Jul 04:49:15 04:54:11 45° 288° (WNW) 04:59:05 435.822/435.867
DOVE 4 26 Jul 04:59:14 05:01:24 13° 90° (E) 05:03:32 437.250
nSIGHT-1 26 Jul 05:08:31 05:09:23 11° 234° (SW) 05:10:15 .
YUBILEINY 26 Jul 05:09:15 05:16:48 31° 75° (ENE) 05:24:15 435.215
STARS 26 Jul 05:10:02 05:14:17 46° 73° (ENE) 05:18:31 437.465
AO-7 26 Jul 05:18:22 05:26:12 47° 294° (WNW) 05:34:00 .
SO-50 26 Jul 05:36:02 05:40:28 55° 115° (ESE) 05:44:53 436.795
XW-2F 26 Jul 05:53:35 05:55:09 12° 94° (E) 05:56:43 145.980 - 146.000
PCSat 26 Jul 06:08:50 06:12:21 17° 308° (NW) 06:15:53 145.827
SRMSAT 26 Jul 06:09:47 06:12:50 14° 195° (SSW) 06:15:53 437.500
XW-2D 26 Jul 06:21:33 06:24:59 33° 98° (E) 06:28:25 145.860 - 145.880
STRAND 1 26 Jul 06:29:43 06:33:29 21° 68° (ENE) 06:37:16 437.568
XW-2B 26 Jul 06:31:30 06:35:07 43° 99° (E) 06:38:43 145.730 - 145.750
DOVE 4 26 Jul 06:34:18 06:39:26 59° 285° (WNW) 06:44:19 437.250
CUTE-I 26 Jul 06:45:09 06:50:22 52° 100° (E) 06:55:32 437.470
XW-2C 26 Jul 06:48:47 06:52:33 81° 101° (E) 06:56:20 145.795 - 145.815
STARS 26 Jul 06:49:05 06:50:47 12° 267° (W) 06:52:29 437.465
NUDT-PHONESAT 26 Jul 06:51:34 06:55:12 61° 101° (E) 06:58:51 437.300
HO-68 26 Jul 07:04:23 07:10:06 25° 96° (E) 07:15:46 435.675
YUBILEINY 26 Jul 07:05:29 07:13:41 47° 271° (W) 07:21:50 435.215
KAITUO 1B 26 Jul 07:07:47 07:11:30 74° 283° (WNW) 07:15:13 145.475/437.950
LilacSat-2 26 Jul 07:13:50 07:17:24 40° 285° (WNW) 07:20:58 437.200
SO-50 26 Jul 07:18:50 07:21:13 14° 310° (NW) 07:23:37 436.795
XW-2F 26 Jul 07:25:58 07:29:19 31° 286° (WNW) 07:32:40 145.980 - 146.000
CUBEBUG 2 26 Jul 07:31:11 07:33:42 15° 94° (E) 07:36:11 437.445
CUTE 1.7 + AOD 2 26 Jul 07:36:57 07:40:59 41° 99° (E) 07:45:01 437.475
SEEDS 26 Jul 07:46:50 07:50:39 32° 98° (E) 07:54:27 437.485
XW-2A 26 Jul 07:49:35 07:52:33 29° 98° (E) 07:55:30 145.665 - 145.685
XW-2D 26 Jul 07:57:15 07:58:49 12° 291° (WNW) 08:00:23 145.860 - 145.880
STRAND 1 26 Jul 08:07:37 08:12:21 37° 261° (W) 08:17:08 437.568
UWE-3 26 Jul 08:25:12 08:29:08 40° 99° (E) 08:33:01 435.000/436.395/437.385
AAUSAT CUBESAT 2 26 Jul 08:26:16 08:30:15 42° 99° (E) 08:34:13 437.432
CUTE-I 26 Jul 08:26:41 08:29:55 16° 295° (WNW) 08:33:07 437.470
ZACube-1 26 Jul 08:36:10 08:39:43 28° 97° (E) 08:43:17 437.345
FO-29 26 Jul 08:40:54 08:47:35 35° 67° (ENE) 08:54:27 435.910
UNISAT 6 26 Jul 08:49:34 08:51:32 13° 67° (ENE) 08:53:30 437.425
HO-68 26 Jul 08:51:09 08:57:58 50° 290° (WNW) 09:04:45 435.675
Oscar 11 26 Jul 08:59:36 09:03:35 36° 98° (E) 09:07:34 .
CUBEBUG 2 26 Jul 09:06:40 09:10:22 31° 287° (WNW) 09:14:00 437.445
CUTE 1.7 + AOD 2 26 Jul 09:14:26 09:16:24 13° 292° (WNW) 09:18:23 437.475
AO-73 26 Jul 09:15:04 09:19:12 80° 103° (ESE) 09:23:20 145.935
NO-84 26 Jul 09:15:56 09:17:36 14° 122° (ESE) 09:19:20 435.350 FM
DELFI C3 26 Jul 09:18:16 09:19:49 12° 93° (E) 09:21:22 145.870
SEEDS 26 Jul 09:23:24 09:26:01 16° 291° (WNW) 09:28:38 437.485
TIGRISAT 26 Jul 09:30:54 09:35:05 34° 73° (ENE) 09:39:14 435.000
PRISM 26 Jul 09:54:38 09:58:38 57° 75° (ENE) 10:02:41 437.425
UWE-3 26 Jul 10:03:28 10:05:10 12° 292° (WNW) 10:06:52 435.000/436.395/437.385
AAUSAT CUBESAT 2 26 Jul 10:03:32 10:05:16 12° 292° (WNW) 10:07:01 437.432
ZACube-1 26 Jul 10:13:02 10:15:46 17° 290° (WNW) 10:18:30 437.345
UNISAT 6 26 Jul 10:23:13 10:27:45 52° 260° (W) 10:32:15 437.425
FO-29 26 Jul 10:25:11 10:32:14 44° 263° (W) 10:39:40 435.910
AIST 2D 26 Jul 10:33:07 10:35:12 15° 71° (ENE) 10:37:16 435.315
Oscar 11 26 Jul 10:36:53 10:39:22 15° 292° (WNW) 10:41:51 .
M-CUBED/EXP-1 PRIME 26 Jul 10:42:50 10:46:18 58° 255° (WSW) 10:50:07 437.505
QB50P2 26 Jul 10:45:02 10:46:52 13° 67° (ENE) 10:48:42 145.880/145.840
DELFI C3 26 Jul 10:50:58 10:54:41 37° 286° (WNW) 10:58:22 145.870
NO-84 26 Jul 10:52:17 10:54:47 24° 318° (NW) 10:57:25 435.350 FM
NANOSAT C BR1 26 Jul 10:55:19 10:57:23 13° 68° (ENE) 10:59:28 145.865
EO-79 26 Jul 10:55:47 10:58:18 15° 69° (ENE) 11:00:49 145.935-145.965
EO-88 26 Jul 10:56:33 11:00:04 48° 284° (WNW) 11:03:35 145.990 - 145.960
LO-87 26 Jul 10:57:22 10:59:18 14° 94° (E) 11:01:12 145.935 - 145.965
BEESAT 3 26 Jul 11:05:12 11:07:27 15° 109° (ESE) 11:09:43 437.485
TIGRISAT 26 Jul 11:08:36 11:11:46 18° 265° (W) 11:14:55 435.000
AO-85 26 Jul 11:10:10 11:12:52 17° 111° (ESE) 11:15:29 145.980
BEESAT 2 26 Jul 11:48:34 11:50:43 14° 108° (ESE) 11:52:53 435.950
ESTCUBE 1 26 Jul 11:54:48 11:59:12 50° 100° (E) 12:03:35 437.505/2401.250
DUCHIFAT 1 26 Jul 11:59:57 12:04:12 75° 76° (ENE) 12:08:25 145.980
POLYITAN 1 26 Jul 12:04:46 12:09:01 73° 257° (WSW) 12:13:18 437.675
AIST 2D 26 Jul 12:05:27 12:08:10 21° 264° (W) 12:10:54 435.315
QB50P2 26 Jul 12:18:09 12:22:13 44° 261° (W) 12:26:18 145.880/145.840
BUGSAT 1 26 Jul 12:22:57 12:26:48 35° 73° (ENE) 12:30:39 437.445
NANOSAT C BR1 26 Jul 12:28:42 12:32:42 40° 261° (W) 12:36:43 145.865
LO-87 26 Jul 12:29:43 12:32:41 24° 287° (WNW) 12:35:37 145.935 - 145.965
EO-79 26 Jul 12:29:49 12:33:43 35° 262° (W) 12:37:38 145.935-145.965
Oscar 19 26 Jul 12:29:59 12:33:29 19° 67° (ENE) 12:36:59 437.125/150
VELOX 1 26 Jul 12:34:15 12:38:00 26° 97° (E) 12:41:44 145.980
BEESAT 3 26 Jul 12:41:03 12:44:41 34° 303° (WNW) 12:48:22 437.485
AO-85 26 Jul 12:49:30 12:53:00 28° 303° (WNW) 12:56:26 145.980
Gurwin Techsat 1B 26 Jul 13:07:20 13:11:51 29° 69° (ENE) 13:16:22 435.225
SPROUT 26 Jul 13:12:49 13:17:05 83° 283° (WNW) 13:21:18 437.525
UKube-1 26 Jul 13:15:32 13:17:35 13° 94° (E) 13:19:37 .
PCSat 26 Jul 13:16:43 13:20:29 19° 53° (NE) 13:24:15 145.827
50 SAT 26 Jul 13:17:51 13:20:56 31° 98° (E) 13:24:00 437.505
BEESAT 2 26 Jul 13:24:27 13:28:06 35° 302° (WNW) 13:31:49 435.950
ESTCUBE 1 26 Jul 13:33:36 13:35:31 13° 293° (WNW) 13:37:25 437.505/2401.250
BUGSAT 1 26 Jul 13:59:49 14:02:12 15° 266° (W) 14:04:35 437.445
O/OREOS (USA 219) 26 Jul 14:04:20 14:07:45 22° 101° (ESE) 14:11:10 437.305
Oscar 19 26 Jul 14:07:39 14:12:26 41° 261° (W) 14:17:16 437.125/150
DX 1 26 Jul 14:10:10 14:14:34 79° 284° (WNW) 14:18:55 434.975-435.025
VELOX 1 26 Jul 14:10:50 14:14:15 22° 290° (WNW) 14:17:40 145.980
SO-50 26 Jul 14:12:35 14:15:23 16° 51° (NE) 14:18:11 436.795
AO-7 26 Jul 14:20:26 14:27:32 32° 62° (ENE) 14:34:36 .
ITAMSAT 1 26 Jul 14:25:06 14:28:29 18° 66° (ENE) 14:31:53 435.822/435.867
RS-15 26 Jul 14:46:14 14:57:38 51° 108° (ESE) 15:09:17 29.354- 29.394
Gurwin Techsat 1B 26 Jul 14:47:09 14:51:40 28° 263° (W) 14:56:12 435.225
UKube-1 26 Jul 14:49:39 14:53:43 40° 287° (WNW) 14:57:45 .
50 SAT 26 Jul 14:52:42 14:53:17 10° 291° (WNW) 14:53:52 437.505
PCSat 26 Jul 14:58:55 15:04:09 51° 249° (WSW) 15:09:22 145.827
